• Em Portugal
  • Lista de países
  • Para 7 dias
  • Temperatura da água
  • Mapas de satélite
  • Mapa do tempo
  • Widgets de tempo
  • user-avatar
    Iniciar Sessão

    Previsão horária em Campo Grande

    Hoje, 27 Abril, Sexta-feira

    Tempo Temperatura Precipitação Vento Pressão Humidade
    00:00 +21°C° 0 mm 2 m/s 711 mmHg 78%
    01:00 +21°C° 0 mm 2 m/s 711 mmHg 81%
    02:00 +21°C° 0 mm 2 m/s 711 mmHg 83%
    03:00 +21°C° 0 mm 2 m/s 711 mmHg 84%
    04:00 +21°C° 0 mm 2 m/s 711 mmHg 85%
    05:00 +20°C° 0 mm 2 m/s 711 mmHg 86%
    06:00 +22°C° 0 mm 3 m/s 711 mmHg 82%
    07:00 +24°C° 0 mm 3 m/s 712 mmHg 78%
    08:00 +25°C° 0 mm 4 m/s 712 mmHg 74%
    09:00 +27°C° 0 mm 4 m/s 712 mmHg 68%
    10:00 +28°C° 0 mm 4 m/s 712 mmHg 62%
    11:00 +30°C° 0 mm 4 m/s 712 mmHg 57%
    12:00 +30°C° 0,1 mm 3 m/s 712 mmHg 55%
    13:00 +31°C° 0,1 mm 3 m/s 711 mmHg 54%
    14:00 +31°C° 0,1 mm 2 m/s 711 mmHg 52%
    15:00 +30°C° 0,4 mm 2 m/s 711 mmHg 58%
    16:00 +28°C° 0,4 mm 2 m/s 710 mmHg 64%
    17:00 +27°C° 0,4 mm 1 m/s 710 mmHg 69%
    18:00 +26°C° 0,4 mm 1 m/s 711 mmHg 71%
    19:00 +26°C° 0,4 mm 2 m/s 711 mmHg 73%
    20:00 +25°C° 0,4 mm 2 m/s 711 mmHg 75%
    21:00 +24°C° 0,1 mm 2 m/s 711 mmHg 76%
    22:00 +24°C° 0,1 mm 2 m/s 712 mmHg 78%
    23:00 +24°C° 0,1 mm 2 m/s 712 mmHg 79%

    Amanhã, 28 Abril, Sábado

    Tempo Temperatura Precipitação Vento Pressão Humidade
    00:00 +23°C° 0 mm 2 m/s 712 mmHg 81%
    01:00 +23°C° 0 mm 2 m/s 711 mmHg 82%
    02:00 +23°C° 0 mm 2 m/s 711 mmHg 84%
    03:00 +21°C° 0 mm 2 m/s 711 mmHg 85%
    04:00 +21°C° 0 mm 2 m/s 711 mmHg 86%
    05:00 +21°C° 0 mm 2 m/s 712 mmHg 87%
    06:00 +23°C° 0 mm 2 m/s 712 mmHg 83%
    07:00 +24°C° 0 mm 2 m/s 713 mmHg 79%
    08:00 +26°C° 0 mm 3 m/s 714 mmHg 75%
    09:00 +27°C° 0,3 mm 2 m/s 714 mmHg 71%
    10:00 +28°C° 0,3 mm 2 m/s 714 mmHg 68%
    11:00 +29°C° 0,3 mm 2 m/s 714 mmHg 65%
    12:00 +28°C° 0,1 mm 2 m/s 713 mmHg 65%
    13:00 +28°C° 0,1 mm 2 m/s 712 mmHg 66%
    14:00 +28°C° 0,1 mm 1 m/s 711 mmHg 66%
    15:00 +27°C° 0 mm 1 m/s 711 mmHg 68%
    16:00 +27°C° 0 mm 1 m/s 711 mmHg 70%
    17:00 +26°C° 0 mm 1 m/s 711 mmHg 72%
    18:00 +25°C° 0 mm 1 m/s 711 mmHg 73%
    19:00 +25°C° 0 mm 1 m/s 712 mmHg 74%
    20:00 +24°C° 0 mm 1 m/s 712 mmHg 75%
    21:00 +24°C° 0 mm 2 m/s 712 mmHg 76%
    22:00 +23°C° 0 mm 2 m/s 712 mmHg 78%
    23:00 +23°C° 0 mm 2 m/s 712 mmHg 79%

    Depois de amanhã, 29 Abril, Domingo

    Tempo Temperatura Precipitação Vento Pressão Humidade
    00:00 +23°C° 0 mm 2 m/s 712 mmHg 81%
    01:00 +21°C° 0 mm 2 m/s 711 mmHg 82%
    02:00 +21°C° 0 mm 2 m/s 711 mmHg 83%
    03:00 +21°C° 0 mm 2 m/s 711 mmHg 85%
    04:00 +21°C° 0 mm 2 m/s 711 mmHg 86%
    05:00 +20°C° 0 mm 2 m/s 711 mmHg 87%
    06:00 +22°C° 0 mm 3 m/s 712 mmHg 83%
    07:00 +24°C° 0 mm 3 m/s 712 mmHg 80%
    08:00 +25°C° 0 mm 3 m/s 713 mmHg 76%
    09:00 +27°C° 0 mm 4 m/s 713 mmHg 70%
    10:00 +28°C° 0 mm 4 m/s 713 mmHg 64%
    11:00 +30°C° 0 mm 4 m/s 714 mmHg 58%
    12:00 +30°C° 0 mm 3 m/s 713 mmHg 56%
    13:00 +31°C° 0 mm 3 m/s 712 mmHg 54%
    14:00 +31°C° 0 mm 3 m/s 711 mmHg 52%
    15:00 +30°C° 0,1 mm 2 m/s 711 mmHg 57%
    16:00 +28°C° 0,1 mm 2 m/s 711 mmHg 62%
    17:00 +27°C° 0,1 mm 2 m/s 710 mmHg 68%
    18:00 +26°C° 0 mm 2 m/s 710 mmHg 71%
    19:00 +25°C° 0 mm 2 m/s 710 mmHg 74%
    20:00 +24°C° 0 mm 2 m/s 711 mmHg 77%
    21:00 +24°C° 0 mm 2 m/s 711 mmHg 78%
    22:00 +22°C° 0 mm 3 m/s 711 mmHg 80%
    23:00 +22°C° 0 mm 3 m/s 711 mmHg 81%

    30 Abril, Segunda-feira

    Tempo Temperatura Precipitação Vento Pressão Humidade
    00:00 +22°C° 0 mm 3 m/s 711 mmHg 82%
    01:00 +21°C° 0 mm 3 m/s 710 mmHg 84%
    02:00 +21°C° 0 mm 3 m/s 710 mmHg 85%
    03:00 +21°C° 0 mm 3 m/s 710 mmHg 86%
    04:00 +21°C° 0 mm 3 m/s 711 mmHg 86%
    05:00 +21°C° 0 mm 3 m/s 711 mmHg 87%
    06:00 +22°C° 0 mm 3 m/s 712 mmHg 82%
    07:00 +23°C° 0 mm 4 m/s 712 mmHg 77%
    08:00 +25°C° 0 mm 4 m/s 713 mmHg 72%
    09:00 +27°C° 0 mm 4 m/s 713 mmHg 67%
    10:00 +29°C° 0 mm 4 m/s 713 mmHg 61%
    11:00 +30°C° 0 mm 4 m/s 713 mmHg 55%
    12:00 +31°C° 0,1 mm 3 m/s 712 mmHg 54%
    13:00 +31°C° 0,1 mm 3 m/s 712 mmHg 52%
    14:00 +32°C° 0,1 mm 2 m/s 711 mmHg 50%
    15:00 +30°C° 0,1 mm 2 m/s 711 mmHg 56%
    16:00 +29°C° 0,1 mm 2 m/s 711 mmHg 63%
    17:00 +27°C° 0,1 mm 2 m/s 710 mmHg 69%
    18:00 +26°C° 0 mm 2 m/s 711 mmHg 71%
    19:00 +25°C° 0 mm 2 m/s 711 mmHg 73%
    20:00 +24°C° 0 mm 2 m/s 711 mmHg 75%
    21:00 +24°C° 0 mm 2 m/s 711 mmHg 76%
    22:00 +24°C° 0 mm 2 m/s 711 mmHg 77%
    23:00 +23°C° 0 mm 2 m/s 711 mmHg 78%

    1 Maio, Terça-feira

    Tempo Temperatura Precipitação Vento Pressão Humidade
    00:00 +23°C° 0 mm 2 m/s 711 mmHg 80%
    01:00 +23°C° 0 mm 2 m/s 711 mmHg 81%
    02:00 +21°C° 0 mm 2 m/s 711 mmHg 83%
    03:00 +21°C° 0 mm 2 m/s 711 mmHg 84%
    04:00 +21°C° 0 mm 2 m/s 711 mmHg 84%
    05:00 +21°C° 0 mm 2 m/s 711 mmHg 85%
    06:00 +22°C° 0 mm 3 m/s 712 mmHg 82%
    07:00 +24°C° 0 mm 3 m/s 712 mmHg 78%
    08:00 +26°C° 0 mm 4 m/s 713 mmHg 74%
    09:00 +27°C° 0,1 mm 4 m/s 713 mmHg 68%
    10:00 +29°C° 0,1 mm 3 m/s 713 mmHg 61%
    11:00 +30°C° 0,1 mm 3 m/s 713 mmHg 54%
    12:00 +31°C° 0,1 mm 3 m/s 712 mmHg 54%
    13:00 +31°C° 0,1 mm 3 m/s 711 mmHg 53%
    14:00 +31°C° 0,1 mm 2 m/s 711 mmHg 52%
    15:00 +30°C° 0,4 mm 2 m/s 711 mmHg 57%
    16:00 +28°C° 0,4 mm 2 m/s 710 mmHg 63%
    17:00 +27°C° 0,4 mm 1 m/s 710 mmHg 68%
    18:00 +26°C° 0 mm 2 m/s 711 mmHg 70%
    19:00 +25°C° 0 mm 2 m/s 711 mmHg 72%
    20:00 +24°C° 0 mm 2 m/s 711 mmHg 74%
    21:00 +24°C° 0 mm 2 m/s 711 mmHg 75%
    22:00 +24°C° 0 mm 2 m/s 711 mmHg 76%
    23:00 +23°C° 0 mm 2 m/s 711 mmHg 77%

    2 Maio, Quarta-feira

    Tempo Temperatura Precipitação Vento Pressão Humidade
    00:00 +23°C° 0 mm 2 m/s 711 mmHg 78%
    01:00 +23°C° 0 mm 2 m/s 711 mmHg 80%
    02:00 +21°C° 0 mm 2 m/s 711 mmHg 81%
    03:00 +21°C° 0 mm 2 m/s 711 mmHg 82%
    04:00 +21°C° 0 mm 2 m/s 711 mmHg 84%
    05:00 +21°C° 0 mm 2 m/s 711 mmHg 85%
    06:00 +23°C° 0 mm 2 m/s 712 mmHg 80%
    07:00 +24°C° 0 mm 3 m/s 712 mmHg 76%
    08:00 +26°C° 0 mm 3 m/s 713 mmHg 72%
    09:00 +27°C° 0 mm 3 m/s 713 mmHg 66%
    10:00 +29°C° 0 mm 3 m/s 713 mmHg 59%
    11:00 +32°C° 0 mm 4 m/s 712 mmHg 53%
    12:00 +31°C° 0,1 mm 3 m/s 712 mmHg 52%
    13:00 +31°C° 0,1 mm 3 m/s 711 mmHg 51%
    14:00 +31°C° 0,1 mm 3 m/s 710 mmHg 51%
    15:00 +30°C° 0,2 mm 2 m/s 710 mmHg 56%
    16:00 +29°C° 0,2 mm 2 m/s 710 mmHg 62%
    17:00 +27°C° 0,2 mm 1 m/s 710 mmHg 67%
    18:00 +26°C° 0 mm 1 m/s 710 mmHg 69%
    19:00 +26°C° 0 mm 1 m/s 710 mmHg 70%
    20:00 +25°C° 0 mm 1 m/s 710 mmHg 72%
    21:00 +24°C° 0 mm 1 m/s 710 mmHg 72%
    22:00 +24°C° 0 mm 1 m/s 710 mmHg 73%
    23:00 +24°C° 0 mm 1 m/s 710 mmHg 73%
    Mostrar mais